Location: Frankfurt+(oder)
(51.7984°N, 12.2168°E)
Time: 14:47:03
(UTC+02:00)

ISS - Pass Details

Date: 23 March 2017
Orbit: 399 x 409 km, 51.6° (Epoch: 30 March)

Event Time Altitude Azimuth Distance (km) Brightness Sun altitude
Exits shadow 04:29:47 12° 182° (S) 1,358 -1.4 -15.4°
Drops below altitude 10° 04:30:12 10° 176° (S) 1,465 -1.2 -15.4°
Sets 04:32:48 0° 155° (SSE) 2,328 0.1 -15.0°
